Wind_Speed
16 18 17 18 18 18 17 17 17 17 16 16 15 14 13 13 13 13 13 13 13 13 12 12 13 13 12 13 14 13 12 12 13 14 16 16 16 17 18 18 19 19 17 16 17 17 16 16 15 14 13 13 13 12 12 11 10 12 15 16 17 15 15 18 16 10 9 10 10 10 8 6 8 5 2 3 2 1 2 4 4 3 4 5 8
19 20 20 20 19 18 17 16 16 15 15 15 14 14 14 13 13 13 13 14 13 12 12 12 12 12 13 14 13 13 13 13 14 15 16 17 17 17 18 18 18 18 17 16 15 15 15 16 15 13 12 12 11 9 9 7 7 10 15 16 16 13 13 17 18 13 10 11 10 9 7 7 8 7 2 2 3 2 2 5 7 5 3 5 9
23 23 22 21 19 19 17 15 14 14 15 15 14 14 14 13 13 13 14 15 13 12 12 11 12 13 13 13 13 14 14 13 14 16 15 15 16 17 17 17 16 17 17 16 14 13 13 14 13 11 10 10 10 10 10 9 7 10 14 13 13 13 12 13 14 13 13 12 10 9 7 7 7 7 5 2 2 2 2 2 3 2 3 7 10
23 23 22 20 20 20 18 15 14 14 15 14 12 12 12 13 14 13 13 14 13 12 11 10 12 14 14 13 14 14 13 12 15 16 13 12 16 19 18 16 15 15 16 15 13 11 10 11 10 10 9 9 9 8 8 8 8 9 11 9 9 10 11 11 10 10 12 13 12 12 9 6 6 7 8 5 2 1 1 4 6 6 8 8 9
22 22 22 20 19 20 18 16 15 15 15 12 10 9 9 11 13 12 12 14 12 11 11 9 11 14 13 13 14 14 12 12 14 15 12 12 16 20 18 16 14 13 14 13 11 10 8 8 8 8 8 8 8 6 5 5 7 8 7 7 6 8 10 11 10 9 10 12 12 13 11 7 6 6 8 6 4 4 3 4 7 5 5 5 6
20 21 21 20 18 18 17 17 17 15 14 12 10 8 8 10 11 11 11 11 9 9 12 10 10 12 13 14 15 14 12 12 13 15 13 11 14 16 16 15 13 11 12 12 11 9 8 7 6 6 8 8 7 6 5 5 6 8 8 7 8 8 8 8 7 8 8 10 12 13 12 9 6 5 7 6 5 7 7 6 4 1 2 3 4
16 15 17 18 17 16 15 15 16 15 13 13 11 10 9 9 10 11 11 9 9 10 11 11 11 11 12 13 14 14 13 12 12 14 13 12 13 14 15 15 11 10 12 12 10 10 10 9 8 6 7 8 7 6 6 6 5 5 7 8 8 8 7 5 5 5 6 8 11 11 10 8 6 5 6 6 5 7 8 4 2 2 4 5 6
14 12 13 15 16 15 13 13 15 15 13 11 10 11 11 11 9 10 10 9 11 13 11 11 12 12 12 13 12 12 13 13 13 14 13 13 13 13 14 14 12 12 12 12 12 12 11 12 11 10 9 10 8 7 6 6 5 3 4 6 7 7 5 4 4 3 3 3 5 6 6 7 8 9 10 8 7 7 6 6 4 3 4 5 6
15 13 12 14 15 13 11 11 11 11 11 10 9 9 12 12 11 12 11 9 12 15 13 11 13 13 12 13 13 13 13 13 14 15 14 15 15 14 14 15 14 13 13 13 14 15 14 14 14 13 12 12 11 9 8 7 7 6 4 4 5 5 4 4 5 3 2 2 2 2 4 5 5 9 11 10 8 6 5 4 3 3 5 6 6
16 13 10 9 11 10 10 9 8 9 10 10 9 8 9 11 10 11 10 7 9 15 14 12 13 13 13 13 14 16 15 14 15 16 15 15 16 16 15 16 17 16 17 17 16 17 17 16 16 15 13 14 13 12 11 10 9 9 8 7 6 6 6 6 7 6 5 4 2 3 3 2 2 3 6 5 5 5 4 2 2 2 4 7 8
15 14 9 5 4 7 9 8 7 9 9 8 7 6 6 8 7 7 8 5 4 9 11 11 11 11 11 12 13 16 18 17 17 17 16 16 17 18 18 19 19 19 20 20 19 19 19 17 17 17 15 15 15 14 14 13 13 13 12 11 10 10 10 9 9 9 8 7 4 2 1 3 4 5 6 7 6 5 3 2 2 4 5 6 7
20 19 14 9 5 5 6 6 4 5 7 6 4 3 4 5 5 6 8 7 6 6 7 8 9 9 10 11 11 11 15 19 20 20 18 18 19 21 21 22 22 21 21 21 21 20 20 19 18 18 17 17 17 16 16 16 15 15 15 15 15 15 14 12 11 10 10 10 7 4 4 5 7 8 8 7 5 3 2 3 4 5 6 7 8
28 27 25 23 19 13 9 8 7 5 3 3 2 2 3 4 4 5 7 9 10 11 10 10 10 10 11 12 12 12 13 15 19 21 21 22 23 24 24 24 24 24 24 23 23 22 22 21 20 19 19 18 18 18 18 17 16 15 14 14 15 14 14 14 13 11 10 10 8 6 6 6 6 6 5 4 2 1 3 5 6 7 8 9 11
28 27 26 25 24 22 19 15 13 11 9 5 2 1 1 3 4 6 7 9 11 12 13 13 13 12 11 10 11 13 13 12 16 19 20 22 23 24 25 25 25 26 26 27 26 24 24 24 23 22 21 20 18 17 17 17 16 13 12 12 12 12 12 13 13 12 11 10 8 6 6 6 5 5 3 2 3 5 5 7 8 9 9 10 11
26 24 23 22 22 22 22 21 18 16 14 13 10 7 6 6 5 5 7 8 9 10 11 13 14 15 14 13 12 13 13 12 14 17 20 21 21 22 25 26 26 26 26 25 24 22 21 22 22 22 21 20 19 17 17 17 16 13 12 11 11 10 10 10 10 11 11 11 9 8 6 6 6 5 3 4 6 7 7 9 9 9 9 9 10
23 22 21 19 19 19 20 21 20 18 17 16 14 12 11 11 10 9 7 7 9 10 11 12 13 14 16 16 17 17 17 16 16 17 20 21 20 21 24 26 27 27 25 24 23 22 21 20 21 22 21 19 19 18 17 16 15 14 13 12 11 9 8 7 7 7 8 8 7 7 7 7 5 3 3 5 7 8 8 8 7 7 8 9 10
20 19 18 15 15 15 16 18 19 18 17 17 16 15 14 12 12 12 11 12 11 12 13 14 14 14 15 16 18 20 21 20 21 21 21 22 23 23 24 27 28 28 26 25 24 24 24 23 23 22 20 19 17 15 15 17 16 15 14 13 11 9 7 6 7 7 7 7 7 7 7 5 2 3 5 6 7 6 6 5 4 6 8 9 10
15 15 15 13 12 12 13 13 14 13 13 14 15 15 15 14 14 14 14 15 15 15 16 17 17 17 17 17 18 20 21 21 22 23 23 24 25 25 26 28 29 28 27 26 25 23 23 22 22 21 21 21 18 16 18 20 18 16 15 14 12 10 9 9 10 10 9 8 7 6 4 3 3 4 5 5 5 4 4 4 4 6 7 8 10
12 11 12 11 10 11 11 11 11 11 12 13 13 14 15 16 16 16 16 17 18 18 18 19 20 19 19 20 20 19 20 20 20 21 22 23 24 25 26 29 29 28 27 28 27 24 22 23 22 22 24 25 22 21 24 24 20 18 17 15 14 12 11 11 10 10 9 7 6 4 2 1 2 3 4 4 4 4 5 5 5 5 5 6 9
11 11 10 10 11 11 12 12 12 12 13 14 14 15 15 16 17 18 19 19 19 20 20 21 22 20 19 19 19 19 20 20 20 20 21 21 22 24 26 29 30 29 29 30 28 24 23 25 25 26 28 28 25 25 27 25 21 20 18 17 16 13 11 11 11 10 8 6 4 2 2 2 3 4 4 4 6 7 6 6 6 5 5 6 9
11 12 13 13 14 15 15 15 14 14 15 15 15 16 16 17 18 19 20 20 21 21 22 23 24 24 22 20 20 20 20 20 20 21 22 22 23 24 27 29 30 30 30 30 27 24 23 24 25 26 26 24 23 24 25 23 21 20 19 17 14 13 13 13 13 10 7 5 4 4 3 3 3 4 5 6 7 6 5 5 6 6 6 7 8
12 12 13 15 16 17 17 17 17 17 17 17 17 17 17 18 18 19 20 20 21 22 23 24 25 26 26 25 23 23 22 22 22 22 23 24 24 25 27 29 30 31 30 28 25 22 21 21 21 21 21 19 18 18 18 19 20 21 20 16 14 13 13 13 12 10 7 6 5 4 3 2 3 3 1 1 2 2 3 5 6 5 4 5 5
13 13 14 15 17 18 18 18 18 19 19 19 19 19 19 19 20 20 21 21 22 23 23 23 24 26 27 28 27 26 26 26 25 25 25 26 26 26 26 27 29 30 29 27 25 23 20 18 18 17 17 17 17 14 13 16 20 20 18 15 15 15 14 12 11 9 8 7 6 4 3 4 5 7 7 6 3 3 5 6 5 4 4 3 4
12 13 14 15 17 18 19 19 19 19 19 19 19 20 20 21 22 21 21 22 23 23 23 23 23 25 26 28 29 29 30 31 29 28 27 27 26 25 24 25 28 28 25 24 25 24 23 22 20 17 16 17 17 16 15 16 18 18 17 16 16 15 13 10 9 9 8 7 5 4 5 6 6 6 6 5 4 4 4 4 4 3 3 3 5
13 14 15 15 17 18 19 19 19 19 19 19 19 19 20 21 21 21 20 20 21 21 21 21 21 22 22 23 25 28 29 31 31 28 28 28 26 23 21 24 27 27 24 25 25 24 25 24 21 20 19 19 18 16 14 13 14 14 14 14 13 12 10 9 9 9 8 7 7 8 8 7 5 4 3 3 2 3 4 4 4 5 5 7 9
15 16 17 17 18 19 19 19 19 19 19 18 17 18 19 20 21 20 19 19 20 20 21 23 24 24 24 24 26 30 28 27 30 29 28 28 25 21 20 23 25 26 25 25 24 24 26 27 25 24 23 21 19 16 14 12 11 11 11 11 12 11 11 10 10 10 9 9 9 9 8 6 4 2 2 3 4 4 4 5 6 8 10 12 13
16 17 18 18 19 19 18 18 18 18 18 18 18 18 19 20 21 21 20 21 22 23 22 23 24 24 25 26 28 29 25 21 28 30 28 26 24 21 21 23 25 26 27 27 27 26 28 29 27 26 24 22 20 19 16 14 12 12 12 12 12 12 10 9 9 9 8 8 9 7 5 3 1 1 2 3 4 5 6 9 10 12 12 13 14
14 15 16 17 18 17 16 17 18 18 19 19 19 20 20 21 22 22 21 21 22 23 24 23 23 24 25 27 28 27 23 18 22 28 29 28 27 26 26 27 29 30 31 31 29 28 30 30 29 28 26 25 22 19 17 15 14 14 14 13 12 11 9 7 8 8 8 8 8 5 3 1 0 2 2 3 4 6 9 11 11 11 12 13 13
12 12 13 14 15 16 16 17 18 19 19 20 20 20 21 21 22 23 22 21 21 22 24 25 24 25 27 28 26 25 24 21 19 23 27 29 29 29 29 30 32 34 35 34 32 32 32 32 31 31 30 27 24 21 18 17 17 16 15 13 12 10 9 9 10 11 10 9 7 4 2 1 2 2 1 1 3 6 9 10 9 9 10 11 12
11 11 12 12 14 15 16 17 18 18 18 19 21 21 21 20 21 22 22 22 22 22 23 24 24 25 27 27 23 21 22 21 19 20 22 26 29 28 28 31 34 36 36 35 35 36 37 35 33 33 31 28 25 22 19 18 19 18 16 14 13 12 11 11 12 12 10 7 5 4 3 3 2 2 1 1 4 7 8 7 7 7 9 11 13
10 12 13 13 14 15 16 17 17 18 19 20 21 22 22 22 20 20 21 23 24 25 25 25 24 23 25 25 21 20 21 20 19 18 18 20 26 27 26 30 34 36 38 39 37 37 37 36 34 33 30 27 23 22 22 22 22 20 17 16 16 15 14 14 13 11 8 6 6 6 4 3 3 3 1 3 5 6 6 5 6 8 11 12 12
11 12 12 12 12 14 15 17 18 19 19 20 20 21 21 21 21 22 23 24 24 25 26 25 24 23 22 23 20 20 22 20 19 18 16 15 21 25 24 26 30 33 35 36 37 38 36 33 30 28 27 26 25 24 25 25 23 20 18 18 19 17 16 15 13 9 7 6 7 6 5 4 4 2 3 4 4 5 5 6 7 9 9 9 9
12 12 12 12 12 14 15 17 18 19 19 19 20 20 20 20 20 21 24 25 26 27 26 24 23 22 21 22 20 19 22 22 21 19 14 12 17 23 24 24 27 29 25 18 20 30 35 32 28 27 26 26 26 25 25 24 22 20 19 20 20 18 16 14 11 7 7 7 6 6 5 4 2 3 3 4 5 6 6 6 6 6 6 8 10
11 10 10 10 11 12 14 15 15 17 18 19 20 21 21 21 20 19 20 22 26 29 30 26 23 22 23 24 23 18 18 19 17 15 13 13 17 23 24 20 21 26 21 8 5 13 22 25 26 27 26 25 25 25 25 24 22 21 20 19 19 17 15 12 10 9 8 8 6 5 4 2 2 3 3 4 5 5 4 5 5 6 8 9 10
9 8 8 8 8 10 12 14 14 16 18 19 19 20 20 19 19 18 17 18 21 26 30 29 26 23 23 25 25 20 14 15 16 16 17 17 19 24 25 20 20 23 21 14 9 11 15 19 23 26 25 24 24 24 23 23 24 23 20 19 19 17 15 14 13 11 9 7 7 6 3 2 2 3 3 4 4 4 5 6 6 7 8 8 9
9 8 7 7 9 12 13 14 15 16 17 19 19 19 18 17 18 18 18 18 20 23 26 27 26 24 24 25 25 22 17 16 19 21 21 21 22 25 26 26 26 24 22 18 15 14 14 15 18 23 26 25 24 23 23 23 23 20 19 21 21 19 17 16 13 9 7 8 8 6 4 4 4 4 4 5 6 6 5 6 7 7 7 7 10
8 7 7 9 12 13 13 14 14 15 16 18 18 16 15 15 15 16 16 18 20 22 24 26 25 25 26 25 23 20 18 15 16 18 19 20 23 26 27 29 31 30 27 23 20 17 16 14 15 19 24 24 23 23 22 21 19 17 19 22 22 19 17 14 9 8 9 9 8 7 7 6 4 4 4 5 6 5 5 6 6 6 7 9 11
7 8 9 11 13 13 12 14 15 14 14 15 15 15 14 13 14 15 16 18 20 21 22 24 24 26 26 23 18 15 13 10 9 12 15 19 22 22 22 25 29 29 26 24 23 20 18 17 18 21 24 24 23 21 19 17 17 17 19 21 20 17 14 11 10 11 11 9 8 8 6 4 4 5 5 5 5 5 4 5 5 7 10 11 11
8 9 10 12 14 13 12 14 15 14 14 14 13 13 14 14 15 16 17 18 20 22 23 25 25 23 21 16 11 9 7 6 8 10 13 16 17 16 17 20 23 24 23 23 24 22 21 21 22 23 23 21 19 17 16 16 18 19 18 18 16 14 12 12 13 13 11 8 8 6 3 2 4 5 4 3 3 3 3 4 6 8 10 11 11
8 10 11 12 13 13 12 13 14 13 13 13 12 13 14 15 16 17 18 20 22 21 20 18 15 12 11 9 8 6 5 7 10 12 12 12 13 15 17 20 23 23 21 21 22 23 23 23 21 19 18 17 15 15 17 19 20 19 17 15 13 12 11 13 14 13 11 9 7 4 2 4 5 4 2 3 4 4 3 4 6 7 8 9 10
9 10 11 11 11 12 13 14 15 14 14 14 13 14 15 16 16 18 19 19 17 15 12 10 8 8 8 7 5 2 4 8 11 11 9 9 11 14 17 21 24 23 20 20 20 19 17 17 18 18 18 18 17 18 20 20 19 16 14 14 14 15 15 15 15 13 11 8 6 4 5 6 5 4 4 5 4 4 4 5 7 8 8 8 9
8 10 10 10 11 13 15 16 16 15 15 15 16 16 16 17 16 16 14 12 8 7 7 8 9 9 8 5 4 2 4 8 10 10 7 7 10 13 15 18 21 21 19 19 18 15 14 17 20 20 20 20 20 21 22 21 18 16 16 18 19 19 19 17 15 12 9 7 6 6 6 6 5 5 5 4 4 4 5 7 8 7 6 7 9
8 9 8 9 12 15 16 16 15 14 15 15 16 16 15 13 10 8 6 4 4 5 8 10 10 9 6 5 4 3 5 8 9 9 8 8 9 11 14 16 19 20 19 16 13 13 18 22 22 22 23 24 23 21 21 21 20 19 20 20 19 18 16 14 12 9 7 7 7 7 6 6 6 6 6 4 3 4 6 8 7 5 5 7 10
9 9 8 10 13 15 17 17 15 14 15 15 14 13 12 9 6 6 7 8 9 10 11 12 12 11 11 9 8 8 10 10 11 11 11 10 9 10 12 15 17 19 17 13 11 15 22 25 25 25 25 23 20 18 19 20 19 18 17 17 15 13 12 10 9 8 7 7 8 8 7 7 7 6 5 3 2 5 7 7 6 5 6 8 10
10 9 8 11 13 14 16 18 16 15 16 16 15 14 13 10 8 8 10 11 11 11 12 13 13 15 17 16 14 13 13 13 14 15 15 15 16 16 16 15 15 15 15 16 20 24 26 27 27 26 25 23 21 20 20 18 17 15 13 10 9 8 7 7 7 7 7 6 6 6 6 8 8 7 5 3 3 5 6 6 5 6 8 10 11
9 8 7 9 12 13 15 16 15 15 16 16 16 16 14 13 12 12 12 13 13 12 12 13 15 17 19 20 20 20 19 19 20 20 20 21 22 22 22 23 24 24 24 26 29 30 30 29 28 27 25 23 22 20 18 16 14 12 10 7 6 6 6 6 7 8 7 6 5 4 5 8 9 8 5 4 4 3 3 5 7 9 10 10 9
8 9 8 7 9 12 14 15 14 14 14 14 16 17 15 14 14 15 16 15 14 13 13 14 17 19 21 22 23 24 25 25 25 24 23 23 24 23 23 24 27 28 27 27 27 26 26 26 24 23 21 19 18 16 15 14 12 11 10 8 7 7 6 7 8 8 7 6 6 5 6 9 9 7 5 4 4 4 5 6 8 10 10 8 7
7 10 10 8 7 8 11 13 13 12 12 13 15 17 16 15 15 16 16 15 13 12 14 16 18 20 22 23 24 25 25 25 25 25 24 25 26 27 26 25 26 26 26 25 25 24 22 21 20 19 18 16 15 15 14 13 12 11 10 9 8 7 7 8 8 8 7 7 6 7 8 9 8 6 5 5 6 7 7 8 9 9 8 7 7
7 10 10 8 7 7 9 12 12 11 11 13 15 17 18 18 17 16 16 15 14 13 14 17 19 21 22 23 23 23 23 23 24 24 24 24 25 26 26 26 25 25 24 24 22 21 20 19 18 18 17 17 16 14 12 11 10 9 8 8 8 8 8 8 8 8 8 7 7 7 8 9 8 6 5 6 6 5 7 9 9 9 9 8 8
6 8 9 9 9 8 9 12 12 11 11 13 15 17 18 18 17 16 16 15 15 15 16 18 19 21 21 22 22 22 22 22 22 22 23 23 24 24 24 23 22 21 21 20 18 17 16 16 16 16 16 15 14 12 10 9 8 7 7 7 8 8 9 8 8 8 8 8 8 8 8 8 7 6 5 6 5 4 6 9 8 7 9 10 10
5 6 8 10 10 10 10 12 13 12 12 13 16 17 17 17 17 16 15 15 15 17 18 18 19 19 20 21 21 21 21 20 20 20 20 20 20 20 21 20 20 19 18 17 15 14 13 13 13 13 13 13 12 10 8 7 6 6 6 7 8 9 9 9 9 9 9 9 9 8 7 6 6 5 6 6 5 4 7 10 7 3 5 9 9
Wind_Direction
164 164 171 175 170 167 166 166 167 167 167 167 162 156 156 155 153 151 149 150 150 148 150 151 151 154 156 153 149 147 149 152 152 151 148 148 150 150 148 144 137 132 127 128 131 129 124 121 120 119 116 113 111 110 105 103 111 119 113 112 122 136 144 137 132 130 129 138 144 140 143 167 180 173 76 49 48 15 308 297 303 320 346 16 22
171 171 177 177 172 171 172 171 171 170 169 169 166 164 163 159 157 155 152 152 152 155 158 156 156 157 154 155 155 153 154 155 155 154 152 153 153 151 149 145 141 139 135 134 137 133 125 121 121 123 118 115 118 111 100 107 127 132 127 121 119 132 147 144 139 138 142 151 152 143 145 166 178 185 211 360 29 38 315 287 280 283 322 17 23
168 170 173 174 173 174 174 175 175 170 168 169 169 169 166 160 156 154 155 157 160 165 165 165 167 162 158 159 159 157 158 159 160 159 157 161 162 156 152 149 146 142 136 134 139 142 135 126 126 128 125 122 118 104 95 102 115 132 135 126 120 127 137 140 138 142 155 162 163 162 158 161 178 200 222 253 341 41 56 358 289 279 39 42 37
164 166 167 167 169 170 169 170 170 164 163 166 170 173 172 167 160 157 163 164 165 169 171 177 179 170 164 163 160 160 162 158 161 162 153 154 161 156 151 149 146 143 141 136 139 149 147 143 142 139 136 134 126 112 106 100 96 121 141 139 130 125 123 135 147 156 167 169 171 182 186 174 179 209 227 225 230 246 82 90 104 90 67 57 43
161 162 163 160 161 165 165 165 164 161 163 168 172 174 175 174 167 164 166 167 170 177 176 181 186 178 170 166 164 164 162 159 163 164 149 138 151 155 153 150 145 149 155 151 151 156 152 149 155 155 153 145 130 119 119 108 90 99 129 145 149 134 123 136 154 165 173 175 177 189 198 187 176 204 222 213 187 201 197 135 130 108 61 54 38
156 159 161 157 154 155 157 162 165 164 167 172 173 168 168 176 174 167 163 169 184 188 180 182 185 179 175 172 171 168 163 163 166 164 158 149 151 155 155 153 152 159 167 165 163 164 158 154 154 160 164 157 146 138 138 140 111 92 106 132 149 147 134 135 145 148 158 166 173 186 194 190 187 202 201 192 180 173 161 143 151 196 336 341 352
143 157 164 159 156 156 155 160 166 168 170 173 176 175 170 172 174 171 171 184 199 189 184 192 190 184 183 178 176 175 170 169 168 166 168 165 160 160 160 162 165 165 163 165 164 162 165 173 170 167 170 165 165 169 158 160 156 109 106 128 144 148 145 146 146 137 135 148 164 181 192 198 220 232 202 184 179 180 188 206 234 265 304 315 321
137 154 162 154 150 154 156 160 165 166 165 164 170 179 180 178 181 189 198 214 213 196 190 200 199 196 196 189 187 189 183 180 181 178 175 171 168 170 172 174 175 170 167 170 172 169 176 185 182 178 179 175 180 198 199 192 194 177 139 140 148 151 156 173 177 151 125 150 173 194 218 229 237 239 232 217 195 191 217 243 255 272 288 305 328
124 139 149 145 141 144 150 155 163 173 177 174 171 176 183 186 196 210 222 238 224 204 195 201 203 203 204 202 200 203 202 198 195 194 191 185 181 181 185 186 183 184 188 188 183 183 189 193 191 187 186 187 191 200 210 218 222 224 224 202 185 182 184 198 202 197 212 238 247 284 286 280 261 241 235 227 209 204 221 234 233 261 284 296 321
108 111 110 121 133 140 146 150 157 169 176 179 181 182 187 191 202 216 225 238 219 203 197 201 207 209 208 210 211 211 214 210 204 204 205 201 194 191 192 193 193 197 199 196 194 195 197 201 203 201 199 199 203 203 206 216 222 227 238 244 240 229 220 219 221 224 241 261 296 335 321 333 348 244 219 195 178 182 182 193 228 315 317 311 320
101 101 91 92 136 145 148 154 161 164 166 170 178 188 193 196 206 217 219 226 211 199 199 203 212 217 214 218 222 220 219 216 212 211 211 207 201 199 200 200 202 207 205 203 204 203 202 205 207 209 209 207 208 211 213 215 218 222 229 233 239 239 231 227 224 224 234 245 255 289 197 135 118 140 154 144 141 143 123 74 11 360 351 342 333
79 81 73 62 82 129 137 135 134 151 165 167 167 188 203 204 218 229 230 240 246 238 229 219 222 235 237 238 243 238 227 219 215 214 212 209 207 208 209 207 208 213 213 212 214 212 208 208 209 211 214 215 215 216 217 218 221 225 228 228 232 235 233 232 230 225 226 225 220 210 177 147 134 138 143 142 142 130 65 18 7 360 353 350 334
66 62 57 53 56 63 75 81 75 78 111 148 162 200 231 240 246 248 247 253 256 259 262 251 238 239 246 251 256 257 249 232 220 215 211 211 213 214 214 214 216 220 221 222 223 219 215 214 213 214 217 221 224 223 224 226 226 227 230 232 235 235 232 232 231 226 217 204 192 182 175 171 165 159 156 154 157 343 343 345 346 340 334 332 324
60 56 52 48 47 47 50 53 52 50 52 51 62 144 282 295 277 256 252 261 265 265 268 265 256 246 245 251 251 249 252 245 232 223 215 213 215 215 217 219 221 224 226 227 226 222 219 219 217 217 219 222 222 222 225 224 222 226 232 231 232 232 231 230 228 225 218 209 204 198 189 193 198 193 194 236 304 327 335 337 334 328 325 324 319
53 50 47 43 39 37 36 33 31 32 35 36 42 48 39 21 354 304 274 272 277 279 278 274 267 257 252 254 255 250 245 241 238 233 226 221 218 217 219 219 219 221 222 223 224 221 218 220 222 223 225 223 218 216 220 221 222 225 225 220 221 226 228 228 227 227 227 226 227 221 204 198 201 204 231 295 319 332 337 332 326 323 325 328 328
46 43 41 37 33 29 26 22 17 12 10 13 19 22 24 24 17 3 338 312 298 293 293 288 280 271 262 258 260 260 255 250 248 243 236 232 230 228 225 223 223 224 224 228 233 232 229 232 236 235 229 221 217 218 222 224 222 214 208 211 218 218 214 211 210 218 223 220 216 207 195 188 190 213 283 317 325 329 329 326 325 334 342 346 347
41 38 34 29 26 25 21 14 9 5 1 360 357 355 354 352 351 353 351 342 329 315 306 300 291 282 274 268 265 263 260 257 256 254 249 244 241 239 235 231 230 231 232 235 238 238 238 238 236 233 227 221 225 234 233 226 217 205 199 203 206 199 194 190 183 183 186 182 179 182 186 194 232 297 317 324 329 331 335 340 348 356 359 357 352
32 30 25 21 17 15 14 9 5 3 1 357 351 345 341 336 330 330 331 330 327 322 319 314 304 292 283 279 274 267 263 261 259 258 257 252 249 247 243 236 231 230 230 230 231 233 233 229 227 232 236 234 240 250 241 225 213 204 201 198 193 189 190 188 181 178 178 178 183 193 211 260 303 329 343 350 352 350 356 2 359 359 3 0 348
21 17 14 12 8 3 2 1 358 355 351 347 342 335 330 326 320 316 316 316 313 310 309 310 309 303 292 285 279 272 268 265 262 258 255 253 252 251 245 237 231 230 230 231 232 234 232 229 231 243 251 248 246 244 234 222 211 208 205 196 190 190 188 186 184 182 180 181 187 196 220 299 346 17 25 17 2 351 354 357 352 353 355 347 340
7 6 4 1 356 353 352 351 348 346 343 339 337 332 327 323 318 314 313 311 308 304 301 300 301 302 298 290 281 274 269 266 263 259 255 251 250 247 242 236 233 234 235 235 235 236 237 239 243 250 252 247 240 232 222 213 208 207 202 194 191 185 173 169 169 167 163 158 148 119 75 50 36 29 9 340 329 331 340 346 346 342 324 314 324
7 5 1 357 355 355 357 356 351 347 343 337 332 329 326 324 322 320 317 313 307 302 299 296 295 295 294 288 278 270 268 267 264 262 257 249 245 242 240 237 237 237 236 234 235 237 241 245 246 246 240 229 219 217 212 206 203 201 196 194 191 178 166 160 155 149 144 131 114 98 76 47 14 354 328 312 308 312 329 355 360 351 329 314 319
6 358 354 355 355 355 353 350 348 345 344 342 337 332 328 324 322 321 322 320 315 308 301 297 295 292 289 286 277 269 267 266 264 263 258 248 242 240 239 239 240 238 234 233 235 236 236 235 231 226 216 202 200 208 208 202 196 191 189 191 186 174 166 157 150 150 149 137 130 123 94 42 17 22 28 247 235 263 350 12 13 5 348 330 330
355 351 351 352 350 349 347 345 343 342 341 340 337 334 331 327 323 322 321 322 323 320 312 305 300 295 292 290 283 272 266 263 262 261 256 249 243 240 239 238 236 233 231 230 227 223 216 206 196 188 183 182 190 198 197 190 184 178 176 176 171 165 161 157 156 161 160 154 151 134 92 81 96 102 102 103 99 56 29 26 28 37 39 16 348
353 353 353 349 345 343 341 339 339 338 336 335 332 330 329 326 323 323 321 321 322 324 323 319 310 302 298 297 292 282 272 263 257 255 255 253 246 237 234 231 227 225 224 222 218 209 197 186 180 176 173 175 179 179 175 169 164 160 159 159 158 160 163 167 171 171 167 166 158 126 109 117 125 112 89 71 58 42 29 18 8 2 353 333 323
7 2 356 349 343 339 335 333 332 332 331 330 329 328 327 324 321 322 323 324 326 328 332 334 330 324 320 316 313 308 291 268 251 244 246 249 245 237 230 225 221 218 214 211 206 197 187 184 186 186 179 172 170 169 165 160 154 151 152 154 154 158 163 166 168 165 159 151 142 132 128 130 127 98 55 21 345 340 338 332 326 321 315 310 309
3 358 353 347 341 337 333 330 329 328 328 329 328 327 327 326 325 326 327 329 330 331 333 334 332 330 330 326 325 327 314 274 242 230 231 234 234 231 226 218 213 213 210 202 192 184 183 186 187 184 177 174 177 178 174 170 164 151 147 151 153 152 153 157 160 157 147 139 141 142 135 125 111 79 24 333 325 337 340 333 331 331 328 323 319
355 351 347 343 339 335 332 329 328 328 329 329 327 326 327 328 329 329 330 329 328 326 327 328 326 324 324 320 318 324 318 275 236 224 224 226 225 223 215 206 201 201 199 191 184 182 185 185 181 180 179 178 180 179 173 167 162 151 150 156 157 154 154 157 162 161 155 153 154 152 148 147 117 29 5 346 350 353 345 338 338 339 340 339 339
349 343 338 334 332 331 330 329 330 329 328 328 326 324 324 325 325 326 327 327 325 324 322 323 323 321 319 316 311 311 311 288 248 231 224 220 217 214 206 198 196 196 192 187 181 178 179 178 175 174 175 173 171 168 164 160 156 154 156 157 156 159 165 174 182 183 178 174 170 168 179 217 328 37 11 354 356 349 338 337 342 347 350 351 349
347 343 337 329 324 325 326 326 324 322 320 319 318 317 317 318 319 319 320 320 321 322 321 321 322 320 317 313 304 294 295 297 283 259 240 225 216 211 207 203 202 200 196 191 183 174 171 171 170 169 170 169 164 160 157 153 152 156 161 163 166 174 181 186 187 183 181 184 186 188 188 149 99 87 37 342 351 345 338 339 344 349 352 355 355
345 345 341 332 324 321 324 324 320 318 316 313 310 309 308 310 311 312 313 313 311 310 311 313 317 318 316 312 300 282 280 290 296 289 270 245 229 222 217 214 210 204 199 193 184 176 171 170 170 170 168 163 157 154 155 158 159 162 167 172 176 178 178 179 179 176 178 187 184 165 152 129 113 126 138 7 350 349 349 351 352 353 356 357 350
340 338 334 329 323 319 321 322 318 315 312 307 305 305 304 305 306 306 309 309 306 303 302 305 309 312 315 314 301 276 272 280 285 293 293 266 242 231 220 214 211 206 200 192 182 174 171 171 171 170 166 162 161 165 169 170 167 165 168 177 183 180 174 175 178 177 177 173 158 150 148 136 133 135 76 360 354 360 2 358 355 354 353 349 335
331 327 320 317 313 310 309 306 302 301 300 299 299 300 301 303 303 304 308 310 308 306 304 305 308 312 317 322 307 276 266 273 278 285 295 275 246 233 221 213 210 202 196 190 182 173 171 172 172 170 168 169 173 174 172 168 166 166 168 173 177 177 174 172 174 174 171 163 156 153 151 145 138 99 17 5 2 359 350 345 351 356 354 346 332
327 319 312 310 309 307 305 301 297 297 296 297 298 297 297 298 299 302 307 311 311 310 308 307 312 318 322 329 321 287 266 268 273 274 279 267 239 225 217 215 209 195 186 190 185 175 172 176 179 179 177 175 173 171 169 168 171 176 177 173 169 170 171 172 172 167 158 152 150 149 146 138 101 40 27 16 354 344 346 360 12 13 7 355 340
334 325 321 318 314 313 315 314 312 309 307 304 302 298 294 292 292 295 302 308 311 313 313 313 318 321 321 326 327 308 274 262 263 267 273 268 239 217 208 208 202 189 186 212 233 177 172 177 180 178 175 170 167 167 167 171 179 186 186 179 171 168 169 169 167 162 157 154 150 142 135 110 33 30 29 9 356 357 29 49 38 20 12 360 338
342 341 337 332 327 330 334 334 332 327 321 315 309 304 298 293 289 289 295 303 307 309 311 313 316 318 318 321 324 319 290 261 257 268 274 262 233 210 196 184 179 182 189 204 215 195 183 182 178 173 169 166 167 170 176 183 188 191 189 179 170 166 165 163 160 160 163 166 161 145 119 69 61 68 48 33 47 74 78 57 33 20 14 357 328
351 349 339 333 336 338 340 340 335 329 325 322 317 313 309 301 293 289 294 302 306 304 306 311 315 317 319 318 316 314 303 275 259 259 260 247 226 208 194 182 175 176 179 183 189 193 193 191 183 176 171 169 170 175 178 179 179 181 181 174 166 161 161 159 155 153 151 149 150 146 126 110 108 90 69 73 82 79 60 39 28 18 2 333 316
351 346 340 342 343 342 340 338 332 328 331 335 334 330 324 315 308 304 304 307 307 303 305 312 315 316 318 316 309 306 307 292 264 251 243 227 212 204 197 188 181 176 173 174 175 174 177 185 186 175 166 161 160 162 162 161 160 160 162 163 161 159 159 156 148 142 140 134 135 138 128 115 96 66 61 73 66 46 31 28 20 354 327 316 315
340 339 342 344 342 339 338 337 334 331 333 339 341 339 333 325 318 314 310 308 307 304 305 310 311 311 314 313 304 297 298 286 254 237 221 205 199 199 196 188 180 174 170 169 165 162 167 177 177 165 154 149 150 153 156 161 164 160 156 158 159 159 156 148 138 137 138 133 128 130 124 96 59 47 46 44 34 26 26 18 349 324 320 322 324
338 343 347 343 339 339 340 339 338 336 333 333 334 332 325 318 313 312 310 309 308 308 309 311 310 310 310 306 296 290 281 237 201 193 190 191 196 201 196 182 170 162 156 155 154 152 156 162 160 154 149 147 150 156 162 168 170 166 160 158 156 155 154 150 144 141 141 140 136 131 109 64 70 64 42 34 58 71 50 8 342 330 327 329 332
349 350 349 344 341 342 343 340 339 340 339 335 328 320 315 314 314 313 312 311 311 314 319 319 317 320 321 309 296 285 247 199 177 168 170 178 185 184 178 171 163 152 146 150 153 150 148 150 151 150 153 160 166 169 169 167 165 163 162 162 159 158 161 159 152 147 149 151 148 133 94 92 91 82 91 117 106 89 56 19 356 338 328 328 335
353 349 346 347 349 348 345 341 338 338 342 341 336 328 322 319 316 314 315 316 317 323 333 338 341 350 350 341 331 302 195 174 160 154 160 172 176 170 164 163 162 157 150 152 153 147 144 151 158 161 166 172 174 169 164 161 157 155 161 166 160 152 150 152 151 150 152 151 142 123 110 104 94 92 121 124 100 70 52 21 349 333 331 338 345
353 349 348 357 3 357 351 346 343 343 344 346 346 342 332 323 320 322 325 327 330 338 349 357 1 5 12 28 46 83 159 162 153 145 139 148 166 171 166 163 165 164 158 154 153 154 161 165 165 166 166 163 156 152 152 154 153 150 149 150 146 141 140 142 145 149 151 145 133 121 111 106 106 111 111 101 79 59 29 354 341 343 352 353 349
1 6 11 16 13 8 4 2 2 5 8 5 360 353 344 337 339 350 1 15 33 35 29 25 23 24 33 46 58 102 144 153 151 147 136 131 148 166 170 166 162 160 159 155 151 159 165 161 153 150 149 147 143 142 145 149 151 148 143 141 141 141 142 143 146 151 155 152 143 134 125 125 127 117 102 92 71 28 3 354 357 9 1 343 343
19 26 30 24 16 13 16 20 23 23 23 22 19 13 8 11 30 58 65 62 58 53 48 43 46 58 72 81 93 109 120 124 125 125 124 124 134 149 161 167 168 169 170 166 155 153 153 147 139 137 138 139 141 142 141 143 146 145 141 140 142 144 146 150 155 158 163 164 160 155 149 144 135 123 118 116 47 10 16 24 28 13 346 340 346
33 37 33 22 17 15 21 29 34 30 25 28 32 33 37 51 73 78 72 68 67 64 58 57 65 77 84 90 97 105 109 112 114 113 112 114 118 121 125 136 152 163 162 151 143 142 141 137 135 134 133 134 137 138 135 136 138 137 135 136 141 146 152 157 158 156 156 157 159 160 157 151 145 141 136 115 54 36 39 32 9 345 342 348 351
42 44 35 20 18 22 28 33 33 28 25 29 35 44 59 79 89 87 81 76 73 71 68 69 78 86 90 92 96 101 103 103 103 103 106 110 112 113 111 110 114 121 124 124 125 126 127 128 130 130 128 126 127 126 125 127 128 126 125 126 129 138 147 148 146 146 145 140 133 134 145 152 152 145 128 102 79 57 25 355 338 331 335 346 356
40 42 41 27 25 33 37 37 32 27 29 36 42 52 70 84 86 84 83 78 72 74 79 83 88 93 95 97 97 98 98 96 94 94 99 104 107 111 113 111 110 113 116 116 116 118 120 122 124 124 123 121 120 117 116 117 117 117 118 114 111 116 127 133 137 140 134 120 108 110 129 144 146 137 111 83 51 19 359 348 341 337 340 355 16
42 44 44 39 42 44 43 42 38 32 33 43 51 60 73 84 86 86 87 85 80 82 88 92 94 96 98 98 98 98 99 98 94 93 96 101 105 108 111 113 113 114 116 116 116 116 117 117 117 118 118 118 118 116 115 115 114 114 114 112 108 108 115 127 135 131 115 101 99 110 125 133 131 116 87 53 29 15 5 357 358 6 19 33 35
56 52 45 48 69 74 59 55 54 47 44 52 59 65 75 85 91 91 92 92 92 95 98 99 100 100 99 98 99 100 101 100 95 92 94 101 106 109 111 113 115 116 116 117 117 118 117 117 118 119 119 119 118 119 119 119 115 110 111 117 114 103 104 118 126 118 104 96 99 111 121 122 117 105 78 45 29 21 11 8 18 42 52 39 21
79 64 52 58 83 98 83 69 64 59 59 66 69 70 76 85 93 95 96 95 96 100 103 102 101 100 100 100 100 101 101 100 97 97 99 103 107 108 109 111 114 115 115 116 118 120 122 124 124 124 124 125 125 123 122 122 116 109 110 116 111 97 95 108 117 111 102 99 101 110 115 111 103 94 68 43 35 29 16 15 28 58 53 29 10
102 84 68 68 89 111 106 85 74 71 73 78 79 80 82 87 92 96 100 102 104 107 107 105 103 102 103 104 104 103 103 102 101 101 103 105 107 107 106 107 108 110 112 114 117 120 124 129 131 131 132 134 133 130 127 125 117 107 102 107 109 99 92 96 104 106 106 108 108 107 106 98 86 72 53 42 37 22 10 11 17 60 61 37 19
Height
812 814 817 819 819 819 820 821 822 823 824 825 826 827 829 829 830 831 832 834 835 836 838 838 840 841 842 843 843 845 846 846 847 848 848 849 849 850 850 851 851 852 852 853 854 855 855 855 856 856 857 857 858 859 859 860 860 861 861 861 861 862 862 863 865 867 869 869 869 870 870 871 871 872 872 871 871 871 871 871 871 871 871 871 871
813 815 817 818 818 819 820 821 822 823 824 825 827 828 829 830 831 831 833 834 836 837 838 839 841 842 842 843 844 845 846 847 848 848 849 849 850 850 851 851 852 852 853 854 854 855 855 855 856 856 857 858 858 859 859 860 860 861 861 861 861 862 863 863 865 867 868 869 869 869 870 870 871 871 871 871 871 871 870 870 870 870 871 871 871
813 814 816 816 817 818 820 821 822 823 824 826 827 828 829 830 831 832 833 835 836 838 839 840 841 842 843 844 845 846 846 847 848 848 849 849 850 850 851 852 852 852 853 853 854 854 855 855 856 856 857 858 858 859 860 860 860 860 861 861 861 862 863 863 864 866 867 867 868 869 869 870 870 870 871 871 871 871 870 870 870 871 872 871 871
811 812 813 815 816 818 819 820 822 823 825 826 827 828 829 830 831 833 834 835 836 838 839 840 841 842 843 844 845 846 846 847 848 848 848 849 849 850 851 851 852 852 852 853 853 854 854 855 855 856 857 857 858 859 859 860 860 860 860 861 861 862 862 863 863 865 866 866 867 868 868 869 869 869 870 871 870 870 871 870 870 871 871 871 871
808 810 812 814 815 817 819 820 822 824 825 827 828 829 829 830 832 833 834 835 836 838 839 840 841 842 843 844 845 845 846 847 847 848 848 849 849 849 850 851 851 852 852 853 853 854 854 855 855 855 856 857 857 858 859 859 859 860 860 860 861 861 862 863 863 864 865 866 866 867 867 868 868 869 869 869 869 870 870 870 870 871 871 870 870
807 809 810 812 815 816 818 820 821 823 825 826 827 828 829 831 832 833 834 835 836 837 838 840 840 841 842 843 844 845 846 846 847 847 848 848 849 849 850 851 851 852 852 852 853 854 854 854 855 855 856 856 857 857 858 858 859 860 860 860 860 861 862 863 863 864 864 864 865 866 867 867 868 868 868 868 868 869 869 870 870 870 870 869 869
808 811 812 811 814 816 818 820 821 823 825 826 827 828 829 830 831 832 833 834 835 837 837 839 840 841 842 842 843 844 845 846 846 847 848 848 848 849 849 850 851 851 852 852 853 853 853 854 854 855 855 856 857 857 857 858 859 859 860 860 860 860 861 862 863 863 864 864 864 865 865 866 866 867 867 867 867 867 868 868 868 868 868 868 868
808 813 814 812 813 815 817 819 821 823 825 826 827 828 829 830 831 832 833 833 835 835 836 838 839 840 841 842 842 843 844 845 846 846 847 847 848 848 849 850 850 851 851 852 852 853 853 853 853 854 855 855 856 856 857 857 858 859 859 860 860 860 861 861 862 862 863 863 864 864 864 865 865 865 866 865 865 866 866 866 866 867 866 866 867
809 813 815 813 813 816 818 819 821 823 824 825 827 828 829 830 830 831 832 833 833 834 835 836 837 838 840 841 842 842 843 844 844 845 845 846 846 847 848 849 849 850 850 851 851 851 851 852 852 853 853 854 855 855 856 856 857 857 858 859 859 860 860 861 861 861 862 862 863 863 864 864 864 864 864 864 864 865 865 865 865 865 865 865 866
811 814 816 816 816 817 818 820 822 823 824 825 827 828 829 830 830 831 832 832 832 833 834 835 836 837 838 839 840 840 841 842 842 843 843 844 845 846 846 847 847 847 848 848 849 849 850 850 851 851 852 852 853 854 854 855 855 856 856 857 858 859 859 860 860 860 861 861 862 862 863 863 863 863 863 863 864 864 864 864 864 864 864 864 864
812 814 817 820 820 819 820 821 823 824 825 826 827 828 829 829 829 830 830 831 832 832 833 834 835 836 837 838 839 839 839 840 840 841 841 842 843 844 844 845 845 845 846 846 847 847 848 849 849 850 851 851 852 852 853 853 854 854 855 855 856 858 858 858 859 859 859 860 861 861 862 862 862 862 862 863 863 864 864 864 864 864 864 864 864
814 815 818 822 823 822 822 823 824 825 825 826 827 828 828 829 829 829 830 830 831 832 832 833 834 835 836 837 837 837 838 838 838 839 839 840 841 841 842 843 844 844 844 845 845 846 846 847 848 848 849 849 850 850 851 851 852 853 853 853 854 855 856 856 857 857 858 858 859 860 860 861 861 862 862 862 863 863 863 863 863 863 863 863 863
814 816 818 821 823 823 824 824 825 825 825 826 827 827 828 828 829 829 829 830 830 831 832 832 833 834 835 835 836 835 836 837 837 837 837 838 838 838 839 841 842 843 843 843 844 844 844 845 846 846 847 847 848 848 849 849 850 851 851 852 852 853 853 854 855 855 856 857 858 858 859 859 860 860 861 862 862 862 862 862 862 862 862 862 862
816 818 820 822 823 824 825 825 826 826 826 826 826 826 827 827 828 828 829 830 830 830 831 832 832 833 834 834 834 834 834 835 835 836 836 836 836 837 837 838 839 840 841 841 842 842 842 843 843 844 845 845 846 847 847 847 848 849 850 850 850 850 850 851 852 853 854 855 856 857 857 858 858 859 860 860 861 861 861 861 861 861 861 861 861
819 821 823 824 824 824 824 824 825 825 826 826 826 826 827 827 827 828 828 829 829 829 830 831 831 832 833 833 833 833 833 834 834 835 835 835 835 835 835 836 836 837 838 839 840 841 841 842 842 842 842 843 844 844 845 845 846 847 848 848 849 848 849 849 850 851 853 853 854 855 856 856 857 858 858 859 859 860 860 860 860 860 860 860 859
824 825 826 826 826 826 825 825 825 824 824 825 824 825 826 826 827 828 828 828 829 828 829 829 830 830 831 832 832 831 831 832 832 833 833 834 834 834 834 834 834 834 835 837 839 840 841 842 841 840 840 841 842 842 843 844 844 845 846 847 847 847 847 848 849 850 852 852 853 854 855 856 856 857 858 858 859 859 859 859 859 859 858 858 858
827 828 828 829 829 829 828 828 827 826 826 825 825 825 826 826 827 827 827 827 828 828 828 827 828 829 829 830 830 829 829 830 830 831 831 832 832 832 832 832 832 833 834 834 836 836 837 838 839 839 839 840 841 842 843 844 843 843 844 845 846 846 846 847 848 849 851 852 852 854 854 855 856 857 857 858 858 858 858 858 858 857 857 857 856
831 831 831 832 832 832 832 831 830 830 829 829 828 827 827 827 826 826 826 826 826 826 826 826 826 826 826 827 827 827 827 827 828 828 828 829 829 829 830 830 830 831 831 832 832 833 834 835 836 837 838 838 840 843 844 843 842 841 841 842 843 844 845 846 847 849 850 851 852 853 854 855 855 856 857 857 857 857 857 856 856 856 856 857 857
834 834 834 835 835 834 833 833 832 831 831 831 830 829 828 828 827 826 826 826 825 825 825 825 824 824 824 824 824 824 824 824 825 826 826 826 826 826 827 827 827 828 829 830 830 831 832 833 834 834 835 835 837 840 841 840 839 839 839 839 841 843 844 846 847 848 849 850 851 852 853 854 855 855 856 856 856 856 856 856 856 856 856 856 857
835 835 836 835 835 835 834 833 833 832 832 831 831 831 830 829 828 827 826 826 825 824 824 824 823 823 823 822 822 821 821 821 822 822 823 823 823 823 824 824 824 825 825 826 827 828 829 830 831 832 832 832 834 836 837 837 836 836 836 838 840 841 843 845 846 847 848 850 851 852 852 853 854 854 855 855 855 855 855 855 855 855 855 856 857
835 835 835 834 834 833 832 832 832 831 831 830 830 830 830 829 829 828 827 826 825 824 823 822 822 821 822 821 820 819 819 819 819 819 819 819 820 820 820 820 821 821 821 822 823 824 825 826 827 828 829 830 832 834 835 836 835 835 835 837 838 840 842 844 845 846 848 849 850 850 851 851 852 852 853 853 854 854 855 855 855 855 855 856 856
835 835 834 833 833 832 831 831 830 830 830 829 829 829 828 828 828 827 826 825 824 823 822 821 820 819 819 819 818 817 817 816 816 816 815 816 816 816 817 817 818 818 818 819 819 820 821 823 824 825 826 829 831 833 834 835 835 835 836 837 837 839 841 842 844 846 847 849 849 850 850 850 850 851 852 853 854 854 855 855 855 855 855 855 854
834 833 833 832 831 830 830 829 829 828 828 827 827 827 827 827 826 826 825 824 823 822 821 821 819 818 816 816 815 814 814 814 813 812 811 811 812 812 813 813 814 814 815 816 816 817 819 821 823 824 824 826 829 832 834 835 834 835 836 836 837 838 840 842 844 845 847 848 848 848 849 849 850 851 852 853 854 854 854 854 854 854 853 853 853
833 833 832 831 831 830 829 829 828 828 827 827 826 826 826 826 825 825 824 823 822 821 820 820 818 816 815 813 812 811 810 810 809 809 808 807 807 808 809 809 810 811 813 813 814 815 817 819 821 822 823 825 828 831 833 834 834 835 836 837 838 839 840 842 844 845 846 847 847 847 848 849 850 851 852 852 853 853 853 853 852 852 852 852 852
834 833 833 832 832 831 830 829 829 828 827 827 826 826 825 825 824 823 823 822 821 820 819 818 817 816 815 813 811 809 806 805 805 805 804 804 803 804 805 806 807 809 810 811 811 813 815 816 818 820 821 824 827 830 832 833 834 835 836 837 838 839 841 842 844 845 846 846 846 847 848 849 850 850 850 850 850 851 851 851 851 850 850 851 851
834 833 833 832 832 831 830 829 829 828 827 827 826 825 825 824 823 823 822 821 820 819 818 817 816 815 814 812 810 807 803 801 801 800 800 799 799 801 802 804 805 806 808 809 810 811 812 814 815 817 820 822 826 829 831 833 834 835 836 836 837 839 841 843 844 845 846 846 847 848 848 849 849 848 848 848 849 849 850 850 850 850 850 849 849
834 834 833 832 832 831 830 829 828 828 827 826 825 825 824 824 823 822 821 820 819 818 817 816 815 814 812 810 808 806 802 800 798 797 796 796 797 798 799 801 803 804 805 807 807 808 810 811 813 815 819 822 824 827 828 830 832 833 834 834 836 838 841 843 844 845 846 847 847 848 848 848 847 847 847 847 848 849 850 850 850 849 849 849 848
834 834 833 833 832 831 831 829 828 827 827 826 825 824 824 823 822 821 821 820 819 817 816 814 813 813 811 809 807 805 803 800 798 795 793 792 792 794 796 798 800 801 802 803 805 806 808 810 811 814 817 819 822 823 825 827 828 830 832 833 835 837 840 842 844 845 846 846 847 847 847 847 846 846 846 847 848 849 850 850 849 849 849 848 848
835 834 833 833 832 832 830 829 828 827 826 825 825 824 823 822 821 820 819 819 818 816 815 813 812 811 809 807 806 804 801 800 798 796 793 790 788 788 790 793 796 797 799 800 801 803 806 807 809 811 814 815 817 819 822 824 826 828 830 832 835 837 840 842 843 844 845 846 846 846 846 846 846 846 846 847 848 849 849 849 849 849 848 848 847
834 834 833 832 832 831 830 829 828 827 826 825 823 822 821 821 820 819 817 816 815 814 813 811 810 809 806 804 803 801 800 798 796 795 794 792 790 787 786 788 790 793 796 798 798 799 801 804 806 808 810 811 813 816 820 823 825 827 829 831 834 837 839 841 843 844 845 845 845 846 846 846 846 846 846 847 848 849 849 848 848 848 848 847 847
833 833 832 831 831 830 829 828 827 826 825 823 822 820 819 818 818 817 816 814 812 811 809 808 807 807 804 801 799 798 798 796 795 794 792 792 792 791 789 788 789 791 793 795 796 796 797 800 802 804 805 807 810 814 818 821 823 825 828 832 835 837 839 841 842 843 844 844 845 845 845 845 845 845 846 847 847 847 848 848 848 847 846 846 847
832 831 830 830 829 829 828 827 826 825 823 822 820 819 817 815 814 814 813 811 810 808 807 805 804 803 802 799 796 795 795 795 793 792 791 790 791 792 792 792 792 793 793 792 792 793 795 798 801 803 803 805 809 813 816 819 822 825 829 832 835 836 838 840 842 843 843 844 844 845 844 844 844 845 845 846 846 846 847 847 846 846 845 846 848
831 830 829 828 827 827 826 825 824 823 822 820 819 818 816 814 813 811 810 808 806 804 804 803 801 800 799 797 794 793 793 793 792 791 790 789 789 790 792 792 793 795 797 796 794 792 793 795 800 803 804 806 809 813 817 820 824 827 830 832 834 835 838 840 841 841 842 843 843 844 844 844 844 844 845 845 845 845 846 845 845 845 846 847 848
829 828 827 827 826 825 824 824 823 822 820 819 818 816 815 814 812 810 809 807 804 801 799 799 799 798 796 794 793 791 790 791 790 790 789 788 788 788 790 792 793 795 798 800 800 797 795 797 800 802 804 807 810 814 818 821 825 828 830 832 833 835 837 838 839 840 841 842 843 843 843 844 844 844 844 844 844 845 845 845 845 846 846 847 847
828 827 826 825 825 824 823 822 821 820 819 817 816 814 813 812 810 809 808 807 805 801 797 795 795 795 793 792 790 790 789 789 789 789 788 788 787 787 788 790 792 795 797 800 802 802 801 802 803 803 805 808 812 816 819 821 824 827 829 831 833 834 836 837 838 839 841 841 842 843 843 844 844 844 843 843 843 844 845 845 846 846 847 847 846
827 826 825 825 824 823 822 821 819 818 817 816 814 812 811 810 809 808 806 805 804 802 798 795 793 792 791 790 788 787 787 787 786 787 787 786 785 785 785 786 789 792 795 797 800 803 804 805 806 805 806 809 813 816 819 821 824 827 829 831 832 834 835 837 838 839 840 841 842 843 843 843 843 843 842 842 843 844 845 846 846 847 847 846 845
826 825 824 823 822 821 820 819 818 817 815 814 812 810 809 808 807 806 805 804 802 800 797 795 792 789 788 787 786 785 784 784 784 784 785 785 785 784 784 784 785 788 791 794 797 802 805 807 808 808 808 810 813 816 819 822 825 827 828 830 832 834 835 836 837 838 839 841 841 842 842 842 842 842 842 842 843 844 845 846 846 846 846 845 843
825 824 823 822 821 820 819 818 816 815 814 813 811 810 808 807 806 805 803 802 800 798 795 793 790 788 786 785 785 785 784 783 783 783 783 785 785 785 785 785 786 787 790 793 796 800 803 806 809 809 809 810 814 817 820 823 825 827 829 830 832 834 835 835 836 838 839 840 841 841 842 842 841 841 841 843 844 845 846 846 846 845 844 843 841
823 822 822 821 820 819 818 817 815 814 813 811 810 809 807 806 805 803 802 799 797 796 793 791 788 787 785 784 784 784 784 784 783 783 784 784 785 786 787 788 789 790 792 794 797 799 801 806 809 810 810 812 815 818 821 823 826 827 829 830 832 833 834 835 836 837 838 839 840 841 841 841 841 841 842 843 844 845 845 845 844 844 843 841 840
823 822 821 820 819 818 817 816 814 813 811 810 809 807 806 805 803 802 800 798 796 794 792 790 788 786 786 785 784 784 784 785 785 785 785 785 786 787 788 789 791 793 795 797 799 800 801 804 808 810 812 814 816 818 821 824 826 828 829 830 832 833 834 835 836 837 838 839 840 840 840 841 841 842 843 844 844 845 844 844 843 842 841 840 839
822 821 820 819 818 817 816 814 813 811 810 809 807 806 805 803 802 801 799 797 796 794 792 790 789 787 787 786 785 785 785 786 787 787 787 787 788 789 790 791 792 794 796 798 800 802 803 806 808 811 813 815 816 818 821 824 826 828 829 830 831 833 834 835 836 837 838 839 839 840 840 841 841 842 843 844 844 844 843 842 842 841 841 839 838
821 821 820 819 818 817 815 814 812 811 809 808 807 805 804 802 801 800 798 797 795 794 792 791 789 788 788 787 787 787 787 788 789 790 790 790 791 792 793 794 795 796 798 800 802 804 806 808 809 811 814 816 817 819 821 823 825 827 828 830 831 833 834 835 837 837 838 838 839 839 840 841 841 842 843 843 843 843 842 841 841 841 840 838 837
821 820 819 819 818 817 815 814 812 810 809 808 806 805 804 802 801 800 798 797 796 795 794 792 791 790 789 788 788 788 789 790 791 791 792 792 793 794 795 796 798 799 802 804 805 806 808 809 810 811 814 816 818 820 821 823 825 826 828 830 832 833 834 836 837 837 838 838 838 839 839 840 841 842 843 843 842 841 841 840 840 840 839 837 836
821 820 819 818 818 817 816 814 812 811 810 808 807 806 804 803 802 801 799 798 797 796 795 795 793 792 791 790 790 791 792 793 793 794 794 794 795 796 797 798 799 801 803 805 806 807 808 809 810 813 815 818 820 822 823 825 826 827 828 830 832 834 835 836 837 837 837 838 838 838 839 840 841 841 842 842 841 840 840 840 840 839 837 836 835
820 819 819 818 818 817 816 814 813 812 811 809 807 806 805 804 803 802 801 800 799 798 797 797 796 795 794 793 794 794 795 795 796 796 796 796 797 797 798 799 800 802 804 806 807 808 809 810 812 815 817 820 822 823 824 826 827 828 830 831 833 834 835 836 836 836 837 837 837 838 838 839 840 841 841 841 840 840 839 839 839 838 836 835 834
820 819 818 818 818 817 816 815 814 813 812 810 808 807 806 805 804 804 803 803 802 801 800 800 799 798 797 797 797 797 798 798 798 798 799 799 799 800 801 801 802 804 807 809 809 809 810 812 813 816 818 820 822 824 825 826 828 830 831 832 834 835 835 835 836 836 837 837 837 837 838 838 839 840 840 840 840 839 839 838 838 837 836 835 834
820 819 818 818 818 817 817 816 815 814 813 811 810 808 807 807 807 806 805 805 804 804 803 802 802 801 801 801 801 801 801 801 801 801 801 802 803 803 804 805 806 807 810 812 812 812 813 814 815 817 819 821 823 825 827 828 830 831 832 833 834 835 835 835 835 836 837 837 837 837 837 838 839 839 839 839 839 838 838 838 837 836 835 834 833
819 818 818 817 817 817 817 816 816 815 814 813 811 809 809 808 808 808 808 807 807 807 806 805 805 805 804 804 804 804 804 804 804 804 805 806 806 807 807 808 809 810 812 813 814 815 816 817 818 819 821 823 825 827 829 831 832 832 833 834 835 835 834 835 835 836 836 836 837 837 838 839 839 839 839 839 838 838 837 837 836 835 834 834 833
819 818 818 817 817 817 817 817 817 816 815 814 812 811 810 810 810 810 809 809 809 809 809 808 808 808 808 808 808 807 807 807 808 808 809 809 810 810 811 811 812 813 814 816 817 818 819 820 821 822 824 826 828 829 831 832 833 833 834 834 835 834 834 835 835 836 836 836 837 838 839 839 839 839 838 838 838 837 837 836 836 835 834 833 832
818 818 817 817 817 817 818 818 817 816 816 815 814 813 812 811 812 811 811 811 811 811 811 811 811 811 811 811 811 811 811 811 811 812 813 813 814 814 814 815 816 817 817 818 819 820 821 822 823 824 826 827 829 831 832 833 834 834 834 834 834 834 834 834 835 835 836 837 838 839 840 840 839 839 838 837 837 837 836 836 835 835 834 833 832
818 818 817 817 817 818 818 818 818 817 817 816 815 814 814 814 814 813 813 813 813 813 814 814 814 814 814 814 814 814 814 814 815 815 816 817 817 817 817 818 819 819 820 820 821 822 823 824 825 827 828 829 830 831 833 834 834 834 834 834 834 834 834 834 834 835 837 838 839 840 840 840 839 838 837 837 837 836 836 835 835 834 833 832 831